Tracking 31027 objects as of 19-Jul-2025
HD Live streaming from Space Station
objects crossing your sky now

THOR ABLESTAR DEB

Track THOR ABLESTAR DEB now!
10-day predictions


NORAD ID: 13514
Int'l Code: 1961-015KX
Perigee: 889.4 km
Apogee: 1,261.6 km
Inclination: 66.7 °
Period: 106.6 minutes
Semi major axis: 7446 km
RCS: 0.0184 m2 (small)
Launch date: June 29, 1961
Source: United States (US)
Launch site: AIR FORCE EASTERN TEST RANGE (AFETR)

Note: This is SATELLITE DEBRIS
Your satellite tracking list
ST5-A
Track 1 satellite(s)




NASA's NSSDC Master Catalog

Two Line Element Set (TLE):
1 13514U 61015KX  25199.62928216  .00000138  00000-0  26436-3 0  9995
2 13514  66.7150  70.3598 0249940 242.4002 147.3713 13.51061518219509
Source of the keplerian elements: AFSPC